Location: Greenhawk Observatory
(37.3417°N, 122.0298°W)
Time: 15:34:02
(UTC-07:00)

Daily predictions for brighter satellites

Satellite Brightness Start Highest point End
(mag) Time Altitude Azimuth Time Altitude Azimuth Time Altitude Azimuth
Cosmos 292 Rocket 3.8 20:43:24 10° S 20:48:12 70° ESE 20:53:01 10° NNE
CENTAUR R/B 3.8 20:40:46 10° NNW 20:48:14 43° NE 20:56:07 10° ESE
Cosmos 1939 Rocket 3.8 20:44:56 10° SE 20:48:19 30° ENE 20:51:44 10° N
Helios 1B rocket 2.9 20:44:50 10° NNE 20:48:46 41° E 20:52:41 10° S
NOSS 3-2 (A) 4.5 20:41:56 10° NW 20:49:32 67° WSW 20:57:38 10° SSE
Abrixas 4.5 20:49:19 10° W 20:51:20 18° SW 20:53:21 10° S
Cosmos 1455 Rocket 3.4 20:48:42 10° N 20:52:56 48° E 20:57:07 10° SSE
Spot 2 Rocket 3.7 20:48:35 10° S 20:53:36 74° WSW 20:58:39 10° NNW
COSMOS 2406 3.7 20:51:05 10° S 20:56:17 37° ESE 21:01:30 10° NE
Cosmos 1812 3.8 20:53:40 10° SSW 20:57:25 48° W 21:01:11 10° N
NOSS 2-2 (C) 3.4 20:55:27 10° SSW 20:59:20 56° ESE 21:03:36 10° NE
COSMOS 2455 2.9 20:53:26 10° NNW 20:59:27 70° ENE 21:05:25 10° SE
Cosmos 1680 Rocket 4.2 20:57:15 10° SSE 21:01:54 33° E 21:06:33 10° NE
Cosmos 1743 3.7 21:01:12 10° NNE 21:04:41 31° ENE 21:07:47 12° SE
CZ-2D R/B 4.3 21:01:19 10° S 21:05:00 45° W 21:08:40 10° NNW
Meteor 1-12 Rocket 4.4 20:59:46 10° N 21:05:50 81° E 21:11:48 10° S
ASTRO E2 3.5 21:06:35 10° WSW 21:10:15 35° S 21:13:07 15° ESE
Tiangong 2 1.4 21:11:12 10° SW 21:14:15 44° SSE 21:17:18 10° ENE
Spot 1 4.1 21:10:14 10° SSE 21:14:51 79° ENE 21:19:14 10° N
Envisat 3.0 21:10:31 10° SSE 21:15:36 88° ENE 21:20:42 10° NNW
Iridium 4 Rocket 4.1 21:10:50 10° N 21:15:47 63° W 21:21:12 10° SSW
ASTEX 1 4.0 21:16:01 13° SE 21:19:53 37° ENE 21:24:23 10° NNE
USA 186 3.7 21:21:44 10° SSW 21:24:34 28° W 21:27:24 10° NW
Okean 1-7 Rocket 4.5 21:23:39 17° SE 21:26:23 31° E 21:30:19 10° NNE
ISS -3.4 21:24:15 10° SSW 21:27:20 38° SE 21:30:25 10° ENE
Cosmos 1238 Rocket 4.4 21:25:27 10° SSE 21:31:49 50° E 21:38:11 10° NNE
Cosmos 1666 3.0 21:31:22 10° N 21:35:01 47° E 21:36:53 24° SE
Aureole 3 Rocket 3.8 21:28:03 10° S 21:35:12 77° E 21:40:14 10° N
Aureole 1 Rocket 2.4 21:33:33 10° S 21:37:04 54° ESE 21:40:05 10° NNE
CZ-4B DEB 3.3 21:36:23 15° S 21:38:42 50° W 21:41:38 10° NNW
Cosmos 1437 4.1 21:36:40 10° SSW 21:39:42 40° WNW 21:42:47 10° N
Meteor 2-4 Rocket 3.7 21:37:40 10° S 21:43:11 68° E 21:48:54 10° NNE
OAO 2 Rocket 3.3 21:40:40 10° WSW 21:45:33 64° S 21:48:58 20° E
DNEPR-1 R/B 4.0 21:42:40 10° NNW 21:46:49 48° ENE 21:48:59 26° ESE
Cosmos 923 Rocket 4.4 21:42:05 10° SSW 21:47:23 66° WNW 21:52:41 10° NNE
Helios 1A 4.3 21:43:31 10° SSW 21:47:27 37° W 21:51:23 10° NNW
YAOGAN 6 2.9 21:50:59 22° S 21:53:05 60° W 21:56:34 10° NNW
USA 245 4.0 21:53:36 23° ENE 21:53:36 23° ENE 21:55:19 10° NNE
Meteor 2-13 Rocket 4.4 21:49:20 10° N 21:55:26 85° W 22:00:15 17° S
YAOGAN 11 4.3 21:56:08 33° SE 21:57:45 51° ENE 22:01:56 10° N
H-2A R/B 3.9 20:51:55 10° W 21:58:23 47° SSW 22:02:51 24° SSE
Cosmos 405 Rocket 4.1 21:57:54 10° SSW 22:01:23 37° WNW 22:04:57 10° N
Cosmos 2184 Rocket 4.2 21:57:03 10° N 22:03:24 73° W 22:08:32 16° S
Cosmos 2074 Rocket 4.2 21:57:12 10° NNW 22:03:24 70° W 22:08:41 15° S
GENESIS II 4.5 22:00:13 10° NNW 22:04:06 55° ENE 22:05:05 42° ESE
CZ-3A R/B 0.8 21:59:26 10° SW 22:04:07 55° S 22:04:07 55° S
ERS-1 Rocket 3.1 22:01:29 23° S 22:04:41 75° WSW 22:09:43 10° NNW
Cosmos 1726 Rocket 4.4 22:02:12 10° NNE 22:06:03 31° ENE 22:06:36 30° E
Cosmos 1610 Rocket 4.4 22:01:01 10° N 22:07:19 84° E 22:11:09 25° S
Cosmos 1656 Rocket 4.1 22:03:59 10° NNW 22:09:19 55° WSW 22:12:38 23° S
MetOp-A 4.1 22:07:52 28° SSE 22:10:46 89° WSW 22:16:10 10° NNW
Meteor 1-23 Rocket 4.2 22:08:09 15° S 22:12:46 86° W 22:18:24 10° N
Cosmos 2058 Rocket 4.2 22:09:03 10° NNE 22:12:51 28° ENE 22:13:09 27° E
Cosmos 1441 Rocket 3.8 22:11:25 19° SSW 22:13:55 53° W 22:17:35 10° N
Cosmos 1025 Rocket 3.0 22:12:15 28° SSW 22:14:28 81° W 22:18:45 10° N
PSLV R/B 4.0 22:11:50 10° WNW 22:14:51 44° N 22:15:28 38° NE
H-2A R/B 2.4 22:14:06 35° ESE 22:15:28 44° ENE 22:20:12 10° N
USA 267 4.1 22:16:51 10° ENE 22:21:19 28° ESE 22:21:19 28° ESE
Meteor 1-15 Rocket 4.1 22:18:40 10° N 22:24:17 84° E 22:26:28 39° SSE
SL-27 R/B 4.0 22:21:36 10° SW 22:24:59 37° WNW 22:28:24 10° N
DMSP B5D2-2 4.4 22:22:46 10° NNE 22:27:50 45° E 22:28:29 43° ESE
MOS 1-B Rocket 4.1 22:27:04 29° S 22:30:01 67° WSW 22:36:11 10° NNW
Cosmos 1624 Rocket 4.1 22:25:06 10° NNW 22:30:21 64° ENE 22:31:37 48° SE
SL-08 RB Rocket 3.5 22:30:58 56° SSE 22:31:55 89° ENE 22:36:24 10° NNW
Intercosmos 24 4.0 22:28:13 10° NNW 22:32:02 59° W 22:32:32 52° SW
Cosmos 962 Rocket 4.4 22:26:14 10° N 22:32:29 74° E 22:34:43 42° SSE
ARGOS 3.3 22:36:34 37° S 22:38:40 67° WSW 22:44:05 10° NNW
CENTAUR R/B 3.7 22:31:28 10° NW 22:39:08 48° WSW 22:43:43 26° S
H-2A R/B 3.0 22:39:03 37° ENE 22:39:09 37° ENE 22:43:19 10° N
Landsat 7 3.9 22:39:26 54° ESE 22:39:58 58° ENE 22:44:39 10° N
SPOT 5 3.0 22:41:33 45° SW 22:42:27 55° W 22:46:42 10° NNW
Cosmos 405 4.3 22:39:21 10° NNW 22:42:35 33° W 22:43:00 31° WSW
Cosmos 2154 Rocket 4.4 22:40:45 10° NNW 22:46:59 62° W 22:50:03 31° SSW
Cosmos 2056 Rocket 3.3 22:43:55 10° NNW 22:49:07 88° ENE 22:49:51 66° SSE
SL-8 Rocket 4.0 22:44:48 10° N 22:51:00 63° E 22:52:21 51° SE
Tiangong 2 2.8 22:48:00 10° W 22:50:11 32° NW 22:50:11 32° NW
Cosmos 2278 3.9 22:46:00 10° NNW 22:51:38 57° ENE 22:52:35 50° ESE
Cosmos 2082 Rocket 2.3 22:51:36 53° ESE 22:51:40 53° ESE 22:57:10 10° NNE
COSMOS 2487 4.0 22:55:03 31° NNE 22:55:03 31° NNE 22:57:03 10° NNE
Terra 2.0 22:54:57 57° ENE 22:55:01 57° ENE 22:59:42 10° N
Cosmos 2366 rocket 4.2 22:49:08 10° N 22:55:05 48° E 22:55:55 45° ESE
CZ-4B R/B 4.2 22:55:04 10° NNE 22:59:03 39° ENE 22:59:03 39° ENE
Cosmos 1437 Rocket 3.8 22:56:48 10° NNW 23:00:20 38° W 23:00:20 38° W
ISS -1.3 23:01:13 10° W 23:03:55 23° NNW 23:06:36 10° NNE
SPOT 1/Viking Rocket 4.1 23:05:33 43° SW 23:06:35 50° W 23:11:36 10° NNW
IGS 5A 3.9 23:09:41 58° N 23:09:41 58° N 23:13:07 10° N
Cosmos 2369 3.5 23:04:33 10° NNW 23:10:19 81° ENE 23:10:51 72° SE
Timation 2 Rocket 4.3 23:12:40 48° E 23:12:40 48° E 23:18:12 10° NE
Cosmos 1697 Rocket 3.1 23:14:13 10° N 23:19:37 47° ENE 23:19:52 47° ENE
Cosmos 2228 3.7 23:16:57 10° NNW 23:20:39 51° WNW 23:20:39 51° WNW
Cosmos 1452 Rocket 3.5 23:16:07 10° NNW 23:21:14 69° ENE 23:21:14 69° ENE
Cosmos 1959 Rocket 4.4 23:15:24 10° N 23:21:48 89° WSW 23:22:44 67° S
SL-08 R/B 4.3 23:16:12 10° N 23:22:21 81° E 23:22:55 73° SE
Cosmos 1602 Rocket 4.2 23:24:52 50° N 23:24:52 50° N 23:28:07 10° N
deb Chang Zheng 4 4.1 23:22:26 10° N 23:26:07 56° NNW 23:26:07 56° NNW
Cosmos 921 Rocket 3.9 23:22:46 10° NNW 23:26:30 45° WNW 23:26:30 45° WNW
Cosmos 2218 Rocket 3.9 23:25:20 10° N 23:31:29 74° W 23:32:13 66° SW
Cosmos 1833 Rocket 2.8 23:34:38 64° WSW 23:35:15 70° WNW 23:40:52 10° NNE
Cosmos 1656 3.6 23:34:00 10° NNW 23:39:09 77° WNW 23:39:09 77° WNW
Meteor 1-21 4.2 23:44:22 79° NNE 23:44:22 79° NNE 23:49:47 10° N
CZ-4 R/B 4.4 23:40:01 10° N 23:44:55 57° WNW 23:44:55 57° WNW
H-2A R/B 4.0 23:54:44 18° W 23:55:06 18° W 23:58:25 10° NW
